Weather in Selo Asanovskiy sovkhoz-tekhnikum

Russia / Udmurt Republic     56°04′12″N   52°34′29″E
temp.,
°C
wind,
m/s
gust,
m/s
humid.,
%
clouds,
%
prec.,
mm/h
press.,
hPa
HPBL,
m
2 august, mon
mon201:00+18w23665 0.0 101335
04:00+16wsw227463 0.0 101428
07:00+19wsw356939 0.0 1014173
10:00+26wsw4546100 0.0 1014859
13:00+29wsw4536100 0.0 10141628
16:00+30wsw4634100 0.0 10121982
19:00+27wsw234850 0.0 101240
22:00+22ssw22538 0.0 101211
3 august, tue
tue301:00+20ssw225716 0.0 101211
04:00+19ssw22616 0.0 101211
07:00+23ssw125642 0.0 101291
10:00+30ssw34365 0.0 1011550
13:00+34sw35293 0.0 10102006
16:00+35sw362311 0.0 10093272
19:00+31sw453199 0.0 100977
22:00+24ese224635 0.1 100912
4 august, wed
wed401:00+21wnw006663 0.1 101011
04:00+21nw3473100 0.1 101077
07:00+22wnw126887 0.0 1011130
10:00+26nw2251100 0.0 1011526
13:00+30sw3440100 0.0 10101331
16:00+31wsw563840 0.0 10091602
19:00+26nw6861100 0.0 1010517
22:00+20nnw3689100 0.9 1012196
5 august, thu
thu501:00+17nnw389581 1.8 1012230
04:00+16n239355 1.8 101363
07:00+18nnw2584100 0.0 1014215
10:00+22n456426 0.0 1014679
13:00+26nne444545 0.0 10132037
16:00+24n4746100 0.0 1014329
19:00+23nne245210 0.0 1014117
22:00+20n486040 0.0 1015200
6 august, fri
fri601:00+16n337249 0.0 101546
04:00+17nne366882 0.1 1016149
07:00+18nne3659100 0.0 1016246
10:00+21ne4446100 0.0 1017643
13:00+24n3535100 0.0 10161956
16:00+24n563187 0.0 10162456
19:00+21nne594133 0.0 1017549
22:00+15n411595 0.0 1018231